Location: Asheville, NC
(35.6000°N, 82.5500°W)
Time: 14:59:22
(UTC-05:00)

Vanguard 3 - Pass Details

Date: 13 December 2017
Orbit: 508 x 3264 km, 33.4° (Epoch: 17 January)

Event Time Altitude Azimuth Distance (km) Brightness Sun altitude
Rises 18:10:45 0° 268° (W) 2,814 11.5 -10.6°
Reaches altitude 10° 18:13:05 10° 252° (WSW) 2,087 10.9 -11.0°
Maximum altitude 18:16:51 23° 199° (SSW) 1,699 9.3 -11.8°
Drops below altitude 10° 18:22:10 10° 149° (SSE) 3,044 10.0 -12.8°
Sets 18:26:25 0° 137° (SE) 4,520 10.7 -13.6°
